| time (UTC) | temp C | wind direction | speed KPH | gust KPH | rain 1hr cm | rain 24hr cm | rain mn cm | humidity % | barometer mb |
| 20260507211004 | 12 | 168 | 3.2 | 0.0 | 0.05 | 3.00 | 0.00 | 98 | 1001.9 |
| 20260507210502 | 12 | 212 | 3.2 | 0.0 | 0.05 | 3.00 | 0.00 | 98 | 1001.9 |
| 20260507210000 | 12 | 254 | 4.8 | 0.0 | 0.03 | 2.97 | 0.00 | 98 | 1001.9 |
| 20260507205057 | 12 | 189 | 3.2 | 0.0 | 0.03 | 3.00 | 0.00 | 97 | 1001.9 |
| 20260507204053 | 12 | 234 | 3.2 | 0.0 | 0.03 | 3.00 | 0.00 | 97 | 1001.9 |
| 20260507203550 | 12 | 5 | 3.2 | 0.0 | 0.00 | 2.97 | 0.00 | 97 | 1001.6 |
| 20260507202042 | 12 | 268 | 6.4 | 0.0 | 0.00 | 2.97 | 0.00 | 96 | 1001.6 |
| 20260507201541 | 12 | 206 | 3.2 | 0.0 | 0.00 | 2.97 | 0.00 | 95 | 1001.6 |
| 20260507200031 | 13 | 271 | 3.2 | 0.0 | 0.00 | 2.97 | 0.00 | 95 | 1001.2 |
| 20260507195529 | 12 | 183 | 1.6 | 0.0 | 0.00 | 2.97 | 0.00 | 95 | 1001.2 |
| 20260507195026 | 12 | 173 | 4.8 | 0.0 | 0.00 | 2.97 | 0.00 | 94 | 1001.2 |
| 20260507194524 | 12 | 205 | 6.4 | 0.0 | 0.00 | 2.97 | 0.00 | 94 | 1001.2 |
| 20260507193521 | 13 | 68 | 1.6 | 0.0 | 0.00 | 2.97 | 0.00 | 95 | 1001.2 |
| 20260507193019 | 13 | 356 | 1.6 | 0.0 | 0.03 | 2.97 | 0.00 | 95 | 1001.2 |
| 20260507192015 | 13 | 241 | 1.6 | 0.0 | 0.05 | 2.97 | 0.00 | 95 | 1001.2 |
| 20260507191514 | 13 | 86 | 1.6 | 0.0 | 0.05 | 2.97 | 0.00 | 95 | 1001.2 |
| 20260507191011 | 12 | 281 | 0.0 | 0.0 | 0.05 | 2.97 | 0.00 | 96 | 1001.2 |
| 20260507190510 | 12 | 156 | 4.8 | 0.0 | 0.08 | 2.97 | 0.00 | 96 | 1001.6 |
| 20260507185508 | 12 | 217 | 4.8 | 0.0 | 0.10 | 2.97 | 0.00 | 97 | 1000.9 |
| 20260507185006 | 12 | 213 | 6.4 | 0.0 | 0.13 | 2.97 | 0.00 | 97 | 1000.5 |
| 20260507184505 | 12 | 307 | 3.2 | 0.0 | 0.15 | 2.97 | 0.00 | 98 | 1000.2 |
| 20260507184002 | 12 | 346 | 1.6 | 0.0 | 0.15 | 2.97 | 0.00 | 99 | 999.2 |
| 20260507183501 | 11 | 81 | 3.2 | 0.0 | 0.18 | 2.97 | 0.00 | 99 | 999.9 |
| 20260507182558 | 11 | 323 | 4.8 | 0.0 | 0.13 | 2.92 | 0.00 | 99 | 1001.2 |
| 20260507182057 | 11 | 30 | 3.2 | 0.0 | 0.13 | 2.92 | 0.00 | 99 | 1001.2 |
| 20260507181555 | 11 | 41 | 4.8 | 0.0 | 0.15 | 2.92 | 0.00 | 98 | 1001.9 |
| 20260507180552 | 11 | 113 | 3.2 | 0.0 | 0.20 | 2.92 | 0.00 | 98 | 1001.9 |
| 20260507175550 | 11 | 39 | 4.8 | 0.0 | 0.25 | 2.87 | 0.00 | 98 | 1001.9 |
| 20260507175048 | 11 | 352 | 3.2 | 0.0 | 0.28 | 2.87 | 0.00 | 98 | 1001.9 |
| 20260507174547 | 11 | 317 | 3.2 | 0.0 | 0.28 | 2.82 | 0.00 | 98 | 1001.9 |
| 20260507174045 | 11 | 356 | 3.2 | 0.0 | 0.36 | 2.82 | 0.00 | 98 | 1002.2 |
| 20260507173544 | 11 | 2 | 4.8 | 0.0 | 0.41 | 2.79 | 0.00 | 98 | 1002.6 |
| 20260507173041 | 11 | 23 | 3.2 | 0.0 | 0.48 | 2.79 | 0.00 | 98 | 1002.2 |
| 20260507172540 | 11 | 334 | 0.0 | 0.0 | 0.53 | 2.79 | 0.00 | 98 | 1002.2 |
| 20260507172035 | 11 | 25 | 3.2 | 0.0 | 0.58 | 2.79 | 0.00 | 98 | 1002.2 |
| 20260507171031 | 11 | 10 | 4.8 | 0.0 | 0.74 | 2.77 | 0.00 | 98 | 1002.9 |
| 20260507170528 | 11 | 323 | 4.8 | 0.0 | 0.81 | 2.72 | 0.00 | 98 | 1003.6 |
| 20260507165524 | 11 | 129 | 4.8 | 0.0 | 0.91 | 2.62 | 0.00 | 98 | 1003.6 |
| 20260507165022 | 11 | 48 | 4.8 | 0.0 | 0.97 | 2.59 | 0.00 | 98 | 1003.3 |
| 20260507164520 | 12 | 117 | 1.6 | 0.0 | 1.04 | 2.54 | 0.00 | 98 | 1003.3 |
| 20260507164017 | 12 | 83 | 3.2 | 0.0 | 1.14 | 2.46 | 0.00 | 98 | 1003.9 |
| 20260507163514 | 12 | 263 | 1.6 | 0.0 | 1.14 | 2.39 | 0.00 | 98 | 1003.6 |
| 20260507162008 | 12 | 274 | 4.8 | 0.0 | 1.27 | 2.21 | 0.00 | 98 | 1003.9 |
| 20260507161506 | 12 | 113 | 4.8 | 0.0 | 1.17 | 2.11 | 0.00 | 98 | 1004.3 |
| 20260507160501 | 12 | 215 | 6.4 | 0.0 | 1.02 | 1.91 | 0.00 | 98 | 1003.9 |
| 20260507155559 | 12 | 188 | 4.8 | 0.0 | 0.81 | 1.70 | 0.00 | 98 | 1003.9 |
| 20260507154554 | 12 | 157 | 1.6 | 0.0 | 0.66 | 1.55 | 0.00 | 98 | 1004.3 |
| 20260507154052 | 12 | 73 | 3.2 | 0.0 | 0.46 | 1.35 | 0.00 | 98 | 1004.3 |
| 20260507153048 | 12 | 167 | 6.4 | 0.0 | 0.28 | 1.17 | 0.00 | 97 | 1004.3 |
| 20260507152545 | 13 | 199 | 9.7 | 0.0 | 0.10 | 0.99 | 0.00 | 96 | 1003.9 |
| 20260507151543 | 13 | 166 | 8.0 | 0.0 | 0.05 | 0.94 | 0.00 | 96 | 1003.9 |
| 20260507151042 | 13 | 187 | 4.8 | 0.0 | 0.05 | 0.94 | 0.00 | 95 | 1003.9 |
| 20260507150540 | 13 | 339 | 11.3 | 0.0 | 0.00 | 0.89 | 0.00 | 94 | 1003.9 |
| 20260507150038 | 13 | 53 | 8.0 | 0.0 | 0.00 | 0.89 | 0.00 | 94 | 1003.9 |
| 20260507145533 | 13 | 203 | 6.4 | 0.0 | 0.00 | 0.89 | 0.00 | 93 | 1003.9 |
| 20260507145032 | 13 | 63 | 8.0 | 0.0 | 0.00 | 0.89 | 0.00 | 92 | 1003.9 |
| 20260507144530 | 13 | 32 | 3.2 | 0.0 | 0.00 | 0.89 | 0.00 | 91 | 1003.9 |
| 20260507144029 | 13 | 10 | 8.0 | 0.0 | 0.00 | 0.89 | 0.00 | 91 | 1004.3 |
| 20260507143528 | 13 | 61 | 16.1 | 0.0 | 0.03 | 0.89 | 0.00 | 91 | 1004.3 |
| 20260507142524 | 13 | 277 | 8.0 | 0.0 | 0.03 | 0.89 | 0.00 | 90 | 1004.3 |
| 20260507142023 | 13 | 152 | 11.3 | 0.0 | 0.03 | 0.89 | 0.00 | 90 | 1004.3 |
| 20260507141021 | 13 | 91 | 12.9 | 0.0 | 0.03 | 0.89 | 0.00 | 90 | 1004.3 |
| 20260507140519 | 13 | 4 | 16.1 | 0.0 | 0.03 | 0.89 | 0.00 | 89 | 1004.3 |
| 20260507140017 | 14 | 203 | 16.1 | 0.0 | 0.03 | 0.89 | 0.00 | 89 | 1004.3 |
| 20260507135515 | 14 | 32 | 12.9 | 0.0 | 0.03 | 0.89 | 0.00 | 89 | 1004.6 |
| 20260507135014 | 14 | 121 | 4.8 | 0.0 | 0.03 | 0.89 | 0.00 | 90 | 1004.3 |
| 20260507134010 | 13 | 46 | 9.7 | 0.0 | 0.03 | 0.89 | 0.00 | 90 | 1004.6 |
| 20260507133509 | 13 | 232 | 11.3 | 0.0 | 0.00 | 0.86 | 0.00 | 89 | 1005.0 |
| 20260507133008 | 13 | 153 | 32.2 | 0.0 | 0.00 | 0.86 | 0.00 | 90 | 1005.0 |
| 20260507132506 | 13 | 53 | 9.7 | 0.0 | 0.00 | 0.86 | 0.00 | 91 | 1005.0 |
| 20260507132005 | 13 | 201 | 12.9 | 0.0 | 0.00 | 0.86 | 0.00 | 91 | 1005.0 |
| 20260507131503 | 13 | 220 | 9.7 | 0.0 | 0.00 | 0.86 | 0.00 | 91 | 1005.0 |
| 20260507131002 | 13 | 38 | 9.7 | 0.0 | 0.03 | 0.86 | 0.00 | 92 | 1005.0 |
| 20260507130500 | 13 | 186 | 17.7 | 0.0 | 0.03 | 0.86 | 0.00 | 92 | 1005.0 |
| 20260507125559 | 13 | 197 | 17.7 | 0.0 | 0.03 | 0.86 | 0.00 | 91 | 1005.3 |
| 20260507125058 | 13 | 131 | 20.9 | 0.0 | 0.03 | 0.86 | 0.00 | 92 | 1005.3 |
| 20260507124556 | 13 | 230 | 11.3 | 0.0 | 0.03 | 0.86 | 0.00 | 91 | 1005.3 |
| 20260507124054 | 13 | 176 | 9.7 | 0.0 | 0.03 | 0.86 | 0.00 | 92 | 1005.3 |
| 20260507123051 | 12 | 200 | 19.3 | 0.0 | 0.03 | 0.86 | 0.00 | 92 | 1005.7 |
| 20260507122550 | 12 | 127 | 9.7 | 0.0 | 0.03 | 0.86 | 0.00 | 93 | 1005.7 |
| 20260507122048 | 12 | 150 | 16.1 | 0.0 | 0.03 | 0.86 | 0.00 | 93 | 1005.7 |
| 20260507121545 | 12 | 139 | 4.8 | 0.0 | 0.03 | 0.86 | 0.00 | 93 | 1006.0 |
| 20260507120542 | 12 | 350 | 3.2 | 0.0 | 0.10 | 0.84 | 0.00 | 93 | 1006.0 |
| 20260507120040 | 12 | 47 | 4.8 | 0.0 | 0.10 | 0.84 | 0.00 | 93 | 1006.3 |
| 20260507115037 | 12 | 176 | 8.0 | 0.0 | 0.10 | 0.84 | 0.00 | 92 | 1006.3 |
| 20260507114532 | 13 | 263 | 11.3 | 0.0 | 0.10 | 0.84 | 0.00 | 91 | 1006.7 |
| 20260507113527 | 13 | 67 | 9.7 | 0.0 | 0.10 | 0.84 | 0.00 | 91 | 1006.7 |
| 20260507113026 | 12 | 356 | 3.2 | 0.0 | 0.10 | 0.84 | 0.00 | 91 | 1006.7 |
| 20260507112525 | 12 | 248 | 16.1 | 0.0 | 0.10 | 0.84 | 0.00 | 91 | 1006.3 |
| 20260507111523 | 12 | 177 | 9.7 | 0.0 | 0.15 | 0.84 | 0.00 | 91 | 1006.3 |
| 20260507111022 | 12 | 155 | 14.5 | 0.0 | 0.15 | 0.84 | 0.00 | 90 | 1006.7 |
| 20260507110520 | 12 | 202 | 17.7 | 0.0 | 0.05 | 0.74 | 0.00 | 90 | 1007.0 |
| 20260507110019 | 12 | 38 | 14.5 | 0.0 | 0.05 | 0.74 | 0.00 | 91 | 1006.7 |
| 20260507105016 | 12 | 339 | 4.8 | 0.0 | 0.05 | 0.74 | 0.00 | 90 | 1007.0 |
| 20260507103510 | 12 | 189 | 12.9 | 0.0 | 0.05 | 0.74 | 0.00 | 88 | 1007.4 |
| 20260507103009 | 12 | 254 | 6.4 | 0.0 | 0.05 | 0.74 | 0.00 | 89 | 1007.4 |
| 20260507102507 | 12 | 175 | 16.1 | 0.0 | 0.00 | 0.69 | 0.00 | 88 | 1007.4 |
| 20260507102007 | 12 | 34 | 4.8 | 0.0 | 0.00 | 0.69 | 0.00 | 88 | 1007.4 |
| 20260507101504 | 12 | 202 | 9.7 | 0.0 | 0.00 | 0.69 | 0.00 | 88 | 1007.7 |
| 20260507101004 | 12 | 224 | 8.0 | 0.0 | 0.05 | 0.69 | 0.00 | 88 | 1007.7 |
| 20260507100502 | 11 | 233 | 11.3 | 0.0 | 0.10 | 0.69 | 0.00 | 88 | 1007.7 |
| 20260507095559 | 11 | 180 | 8.0 | 0.0 | 0.20 | 0.69 | 0.00 | 88 | 1007.4 |
| 20260507095058 | 11 | 171 | 8.0 | 0.0 | 0.23 | 0.69 | 0.00 | 88 | 1007.4 |
| 20260507094555 | 11 | 176 | 8.0 | 0.0 | 0.23 | 0.69 | 0.00 | 88 | 1007.4 |
| 20260507094054 | 11 | 159 | 12.9 | 0.0 | 0.25 | 0.69 | 0.00 | 89 | 1007.4 |
| 20260507093553 | 11 | 206 | 14.5 | 0.0 | 0.25 | 0.69 | 0.00 | 89 | 1007.4 |
| 20260507092049 | 11 | 217 | 22.5 | 0.0 | 0.25 | 0.69 | 0.00 | 90 | 1006.3 |
| 20260507091548 | 11 | 207 | 14.5 | 0.0 | 0.25 | 0.69 | 0.00 | 91 | 1006.3 |
| 20260507091047 | 11 | 57 | 14.5 | 0.0 | 0.20 | 0.64 | 0.00 | 91 | 1006.3 |
| 20260507090543 | 11 | 351 | 14.5 | 0.0 | 0.15 | 0.58 | 0.00 | 90 | 1006.3 |
| 20260507090043 | 11 | 166 | 19.3 | 0.0 | 0.13 | 0.56 | 0.00 | 89 | 1006.3 |
| 20260507085542 | 11 | 166 | 9.7 | 0.0 | 0.05 | 0.48 | 0.00 | 89 | 1007.0 |
| 20260507085041 | 11 | 46 | 14.5 | 0.0 | 0.03 | 0.46 | 0.00 | 88 | 1007.0 |
| 20260507084539 | 11 | 239 | 22.5 | 0.0 | 0.03 | 0.46 | 0.00 | 87 | 1007.0 |
| 20260507084038 | 11 | 151 | 12.9 | 0.0 | 0.00 | 0.43 | 0.00 | 87 | 1006.7 |
| 20260507082531 | 11 | 163 | 12.9 | 0.0 | 0.00 | 0.43 | 0.00 | 87 | 1007.4 |
| 20260507082030 | 11 | 181 | 16.1 | 0.0 | 0.00 | 0.43 | 0.00 | 88 | 1007.0 |
| 20260507081528 | 10 | 37 | 4.8 | 0.0 | 0.00 | 0.43 | 0.00 | 87 | 1007.7 |
| 20260507080526 | 11 | 27 | 8.0 | 0.0 | 0.00 | 0.43 | 0.00 | 86 | 1008.0 |
| 20260507080024 | 11 | 354 | 4.8 | 0.0 | 0.00 | 0.43 | 0.00 | 85 | 1008.4 |
| 20260507075020 | 11 | 195 | 4.8 | 0.0 | 0.00 | 0.43 | 0.00 | 83 | 1008.7 |
| 20260507074518 | 11 | 307 | 4.8 | 0.0 | 0.00 | 0.43 | 0.00 | 83 | 1009.1 |
| 20260507073515 | 11 | 85 | 6.4 | 0.0 | 0.00 | 0.43 | 0.00 | 82 | 1009.4 |
| 20260507073014 | 11 | 60 | 6.4 | 0.0 | 0.00 | 0.43 | 0.00 | 82 | 1009.4 |
| 20260507072512 | 11 | 223 | 9.7 | 0.0 | 0.00 | 0.43 | 0.00 | 82 | 1009.4 |
| 20260507072011 | 11 | 164 | 9.7 | 0.0 | 0.00 | 0.43 | 0.00 | 82 | 1009.1 |
| 20260507071509 | 11 | 111 | 8.0 | 0.0 | 0.00 | 0.43 | 0.00 | 82 | 1009.7 |
| 20260507070506 | 11 | 192 | 11.3 | 0.0 | 0.00 | 0.43 | 0.00 | 81 | 1009.4 |
| 20260507070009 | 11 | 275 | 4.8 | 0.0 | 0.00 | 0.43 | 0.00 | 82 | 1009.4 |
| 20260507065503 | 11 | 211 | 14.5 | 0.0 | 0.00 | 0.43 | 0.00 | 82 | 1009.4 |
| 20260507064100 | 11 | 21 | 4.8 | 0.0 | 0.00 | 0.43 | 0.00 | 81 | 1009.4 |
| 20260507063556 | 11 | 214 | 8.0 | 0.0 | 0.00 | 0.43 | 0.00 | 81 | 1009.1 |
| 20260507063056 | 11 | 299 | 4.8 | 0.0 | 0.00 | 0.43 | 0.00 | 81 | 1009.1 |
| 20260507062054 | 11 | 295 | 9.7 | 0.0 | 0.00 | 0.43 | 0.00 | 81 | 1010.4 |
| 20260507061551 | 11 | 16 | 4.8 | 0.0 | 0.00 | 0.43 | 0.00 | 81 | 1010.4 |
| 20260507060551 | 11 | 190 | 3.2 | 0.0 | 0.00 | 0.43 | 0.00 | 82 | 1010.4 |
| 20260507060049 | 11 | 90 | 6.4 | 0.0 | 0.00 | 0.43 | 0.00 | 82 | 1011.1 |
| 20260507055547 | 11 | 171 | 6.4 | 0.0 | 0.00 | 0.43 | 0.00 | 82 | 1011.5 |
| 20260507055046 | 11 | 206 | 8.0 | 0.0 | 0.00 | 0.43 | 0.00 | 82 | 1011.8 |
| 20260507054044 | 11 | 58 | 12.9 | 0.0 | 0.00 | 0.43 | 0.00 | 82 | 1011.8 |
| 20260507053541 | 11 | 6 | 3.2 | 0.0 | 0.00 | 0.43 | 0.00 | 82 | 1011.8 |
| 20260507053040 | 11 | 166 | 9.7 | 0.0 | 0.00 | 0.43 | 0.00 | 82 | 1011.8 |
| 20260507052539 | 11 | 331 | 3.2 | 0.0 | 0.00 | 0.43 | 0.00 | 82 | 1011.8 |
| 20260507052037 | 11 | 342 | 9.7 | 0.0 | 0.00 | 0.43 | 0.00 | 82 | 1012.1 |
| 20260507051535 | 11 | 282 | 1.6 | 0.0 | 0.00 | 0.43 | 0.00 | 82 | 1012.1 |
| 20260507051031 | 11 | 85 | 8.0 | 0.0 | 0.00 | 0.43 | 0.00 | 82 | 1012.1 |
| 20260507050027 | 11 | 129 | 6.4 | 0.0 | 0.00 | 0.43 | 0.00 | 82 | 1012.1 |
| 20260507045526 | 11 | 285 | 1.6 | 0.0 | 0.00 | 0.43 | 0.00 | 82 | 1012.1 |
| 20260507045025 | 11 | 105 | 9.7 | 0.0 | 0.00 | 0.43 | 0.00 | 82 | 1012.5 |
| 20260507044522 | 11 | 221 | 4.8 | 0.0 | 0.00 | 0.43 | 0.00 | 82 | 1012.5 |
| 20260507044020 | 11 | 59 | 6.4 | 0.0 | 0.00 | 0.43 | 0.00 | 82 | 1012.5 |
| 20260507043017 | 11 | 15 | 1.6 | 0.0 | 0.00 | 0.43 | 0.00 | 81 | 1012.8 |
| 20260507042515 | 11 | 240 | 4.8 | 0.0 | 0.00 | 0.43 | 0.00 | 82 | 1012.8 |
| 20260507042014 | 11 | 346 | 8.0 | 0.0 | 0.00 | 0.43 | 0.00 | 81 | 1012.8 |
| 20260507041011 | 11 | 26 | 3.2 | 0.0 | 0.00 | 0.43 | 0.00 | 81 | 1013.2 |
| 20260507040510 | 11 | 9 | 8.0 | 0.0 | 0.00 | 0.43 | 0.00 | 82 | 1013.2 |
| 20260507040008 | 11 | 339 | 4.8 | 0.0 | 0.00 | 0.43 | 0.00 | 82 | 1013.5 |
| 20260507035507 | 11 | 40 | 3.2 | 0.0 | 0.00 | 0.43 | 0.00 | 81 | 1013.8 |
| 20260507035005 | 11 | 23 | 3.2 | 0.0 | 0.00 | 0.43 | 0.00 | 81 | 1013.8 |
| 20260507034504 | 11 | 58 | 3.2 | 0.0 | 0.00 | 0.43 | 0.00 | 80 | 1014.2 |
| 20260507034001 | 11 | 155 | 6.4 | 0.0 | 0.00 | 0.43 | 0.00 | 81 | 1014.2 |
| 20260507033100 | 11 | 335 | 4.8 | 0.0 | 0.00 | 0.43 | 0.00 | 80 | 1014.2 |
| 20260507032558 | 11 | 55 | 4.8 | 0.0 | 0.00 | 0.43 | 0.00 | 80 | 1014.2 |
| 20260507032055 | 11 | 346 | 3.2 | 0.0 | 0.00 | 0.43 | 0.00 | 79 | 1014.2 |
| 20260507031054 | 12 | 212 | 9.7 | 0.0 | 0.00 | 0.43 | 0.00 | 79 | 1014.5 |
| 20260507030552 | 12 | 134 | 11.3 | 0.0 | 0.00 | 0.43 | 0.00 | 78 | 1014.5 |
| 20260507030050 | 12 | 200 | 4.8 | 0.0 | 0.00 | 0.43 | 0.00 | 78 | 1014.5 |
| 20260507025550 | 12 | 203 | 11.3 | 0.0 | 0.00 | 0.43 | 0.00 | 78 | 1014.9 |
| 20260507025047 | 12 | 336 | 6.4 | 0.0 | 0.00 | 0.43 | 0.00 | 78 | 1014.9 |
| 20260507024045 | 12 | 328 | 6.4 | 0.0 | 0.00 | 0.43 | 0.00 | 77 | 1014.9 |
| 20260507023042 | 12 | 146 | 14.5 | 0.0 | 0.00 | 0.43 | 0.00 | 77 | 1015.2 |
| 20260507022539 | 12 | 172 | 9.7 | 0.0 | 0.00 | 0.43 | 0.00 | 77 | 1014.9 |
| 20260507022037 | 12 | 310 | 4.8 | 0.0 | 0.00 | 0.43 | 0.00 | 76 | 1015.2 |
| 20260507021532 | 12 | 268 | 16.1 | 0.0 | 0.00 | 0.43 | 0.00 | 76 | 1015.2 |
| 20260507020027 | 12 | 187 | 14.5 | 0.0 | 0.00 | 0.43 | 0.00 | 76 | 1015.5 |
| 20260507015525 | 12 | 150 | 4.8 | 0.0 | 0.00 | 0.43 | 0.00 | 76 | 1015.5 |
| 20260507015023 | 12 | 85 | 6.4 | 0.0 | 0.00 | 0.43 | 0.00 | 76 | 1015.5 |
| 20260507014522 | 12 | 333 | 9.7 | 0.0 | 0.00 | 0.43 | 0.00 | 75 | 1015.5 |
| 20260507014020 | 12 | 209 | 8.0 | 0.0 | 0.00 | 0.43 | 0.00 | 76 | 1015.5 |
| 20260507013519 | 12 | 190 | 9.7 | 0.0 | 0.00 | 0.43 | 0.00 | 76 | 1015.5 |
| 20260507013017 | 12 | 259 | 11.3 | 0.0 | 0.00 | 0.43 | 0.00 | 76 | 1015.5 |
| 20260507012515 | 12 | 136 | 9.7 | 0.0 | 0.00 | 0.43 | 0.00 | 76 | 1015.5 |
| 20260507011510 | 12 | 181 | 11.3 | 0.0 | 0.00 | 0.43 | 0.00 | 76 | 1015.9 |
| 20260507010506 | 12 | 188 | 12.9 | 0.0 | 0.00 | 0.43 | 0.00 | 76 | 1015.9 |
| 20260507005503 | 12 | 50 | 11.3 | 0.0 | 0.00 | 0.43 | 0.00 | 76 | 1015.9 |
| 20260507004559 | 13 | 173 | 11.3 | 0.0 | 0.00 | 0.43 | 0.00 | 76 | 1015.9 |
| 20260507004057 | 13 | 210 | 9.7 | 0.0 | 0.00 | 0.43 | 0.00 | 76 | 1015.5 |
| 20260507003054 | 13 | 237 | 16.1 | 0.0 | 0.00 | 0.43 | 0.00 | 76 | 1015.5 |
| 20260507002550 | 13 | 188 | 14.5 | 0.0 | 0.00 | 0.43 | 0.00 | 76 | 1015.5 |
| 20260507002049 | 13 | 179 | 14.5 | 0.0 | 0.00 | 0.43 | 0.00 | 76 | 1015.5 |
| 20260507001547 | 13 | 181 | 11.3 | 0.0 | 0.00 | 0.43 | 0.00 | 76 | 1015.5 |
| 20260507000544 | 13 | 185 | 12.9 | 0.0 | 0.15 | 0.43 | 0.00 | 76 | 1015.2 |
| 20260507000041 | 13 | 199 | 27.4 | 0.0 | 0.15 | 0.43 | 0.00 | 76 | 1015.5 |
| 20260506235540 | 13 | 229 | 11.3 | 0.0 | 0.15 | 0.43 | 0.00 | 75 | 1015.5 |
| 20260506234535 | 14 | 241 | 11.3 | 0.0 | 0.23 | 0.43 | 0.00 | 75 | 1015.2 |
| 20260506234033 | 14 | 191 | 19.3 | 0.0 | 0.23 | 0.43 | 0.00 | 75 | 1015.2 |
| 20260506233531 | 14 | 294 | 8.0 | 0.0 | 0.23 | 0.43 | 0.00 | 75 | 1015.5 |
| 20260506233029 | 14 | 213 | 11.3 | 0.0 | 0.23 | 0.43 | 0.00 | 75 | 1015.2 |
| 20260506232023 | 15 | 269 | 12.9 | 0.0 | 0.23 | 0.43 | 0.00 | 74 | 1015.5 |
| 20260506231521 | 15 | 254 | 19.3 | 0.0 | 0.23 | 0.43 | 0.00 | 74 | 1015.5 |
| 20260506231020 | 15 | 199 | 12.9 | 0.0 | 0.08 | 0.28 | 0.00 | 74 | 1015.5 |
| 20260506230518 | 15 | 217 | 14.5 | 0.0 | 0.08 | 0.28 | 0.00 | 74 | 1015.5 |
| 20260506230014 | 15 | 157 | 30.6 | 0.0 | 0.08 | 0.28 | 0.00 | 74 | 1015.5 |
| 20260506225512 | 15 | 226 | 8.0 | 0.0 | 0.08 | 0.28 | 0.00 | 74 | 1015.5 |
| 20260506225010 | 15 | 147 | 14.5 | 0.0 | 0.00 | 0.20 | 0.00 | 74 | 1015.2 |
| 20260506224507 | 15 | 213 | 17.7 | 0.0 | 0.00 | 0.20 | 0.00 | 74 | 1015.2 |
| 20260506224003 | 16 | 235 | 16.1 | 0.0 | 0.05 | 0.20 | 0.00 | 74 | 1015.5 |
| 20260506223501 | 16 | 156 | 14.5 | 0.0 | 0.05 | 0.20 | 0.00 | 73 | 1015.2 |
| 20260506222558 | 16 | 123 | 14.5 | 0.0 | 0.05 | 0.20 | 0.00 | 73 | 1015.2 |
| 20260506222055 | 16 | 184 | 4.8 | 0.0 | 0.08 | 0.20 | 0.00 | 73 | 1015.2 |
| 20260506221051 | 16 | 200 | 19.3 | 0.0 | 0.18 | 0.20 | 0.00 | 72 | 1015.2 |
| 20260506220550 | 16 | 194 | 12.9 | 0.0 | 0.18 | 0.20 | 0.00 | 72 | 1015.2 |
| 20260506215547 | 16 | 186 | 19.3 | 0.0 | 0.18 | 0.20 | 0.00 | 71 | 1015.2 |
| 20260506215046 | 17 | 250 | 16.1 | 0.0 | 0.20 | 0.20 | 0.00 | 71 | 1014.9 |
| 20260506214543 | 17 | 227 | 14.5 | 0.0 | 0.20 | 0.20 | 0.00 | 70 | 1014.9 |
| 20260506214042 | 17 | 187 | 9.7 | 0.0 | 0.15 | 0.15 | 0.00 | 70 | 1014.9 |
| 20260506213540 | 17 | 74 | 12.9 | 0.0 | 0.15 | 0.15 | 0.00 | 70 | 1015.2 |
| 20260506213038 | 17 | 264 | 11.3 | 0.0 | 0.15 | 0.15 | 0.00 | 70 | 1014.9 |
| 20260506212537 | 17 | 137 | 20.9 | 0.0 | 0.15 | 0.15 | 0.00 | 69 | 1014.9 |
| 20260506212031 | 17 | 188 | 20.9 | 0.0 | 0.13 | 0.13 | 0.00 | 68 | 1015.2 |